Regional Weather Roundup
Issued by NWS Newport/Morehead, NC

Home | Current Version | Previous Version | Text Only | Print | Product List | Glossary On
Versions: 1 2 3 4 5 6 7 8 9 10 11 12 13 14 15 16 17 18 19 20 21 22 23 24 25 26 27 28 29 30 31 32 33 34 35 36 37 38 39 40 41 42 43 44 45 46 47 48 49 50
000
ASUS42 KMHX 020522
RWRMHX
WEATHER ROUNDUP FOR EASTERN NORTH CAROLINA
NATIONAL WEATHER SERVICE NEWPORT/MOREHEAD CITY NC
100 AM EDT THU OCT 02 2014

NOTE: "FAIR" INDICATES FEW OR NO CLOUDS BELOW 12,000 FEET
WITH NO SIGNIFICANT WEATHER AND/OR OBSTRUCTIONS TO VISIBILITY

NCZ015>017-031-032-045>047-102-103-020600-
NORTH COAST

CITY           SKY/WX    TMP DP  RH WIND       PRES   REMARKS
EDENTON        CLEAR     61  60  97 CALM      30.05R FOG
ELIZABETH CITY PTCLDY    66  63  90 NE5       30.04S
KITTY HAWK     PTCLDY    68  62  80 NE6       30.02S
MANTEO         CLOUDY    67  62  84 NE8       30.04R

$$

NCZ045>047-081-094-103-104-020600-
CENTRAL COAST

CITY           SKY/WX    TMP DP  RH WIND       PRES   REMARKS
FRISCO         PTCLDY    66  64  93 NE5       30.03S
SWANQUARTER      N/A     66 N/A N/A E1        30.00S

$$

NCZ095-097-098-100-101-020600-
SOUTHERN COAST

CITY           SKY/WX    TMP DP  RH WIND       PRES   REMARKS
BEAUFORT       CLEAR     67  65  93 NE3       30.04R
CEDAR ISLAND     N/A     72 N/A N/A NE7       30.09R
JACKSONVILLE   CLEAR     64  62  93 CALM      30.04R
NEWPORT        NOT AVBL
PINEY ISLAND   PTCLDY    72  65  78 NE7       30.03S
WILMINGTON     CLEAR     64  63  96 CALM      30.03S


$$

NCZ011>013-027>030-043-044-078>080-089-090>093-098-020600-
COASTAL PLAIN

CITY           SKY/WX    TMP DP  RH WIND       PRES   REMARKS
AHOSKIE        PTCLDY    60  59  96 CALM      30.06R
CLINTON        CLEAR     62  62 100 CALM      30.05S FOG
ELIZABETHTOWN  CLEAR     65  65  97 CALM      30.04S
GOLDSBORO      CLEAR     64  63  98 CALM      30.03S
GREENVILLE     CLEAR     63  63 100 CALM      30.06S
HAVELOCK       CLEAR     64  63  96 CALM      30.05S FOG
KENANSVILLE    CLEAR     61  59  94 CALM      30.06R FOG
KINSTON        CLEAR     61  61  98 CALM      30.06R FOG
NEW BERN       PTCLDY    63  61  94 CALM      30.05S FOG
RICHLANDS      CLEAR     61  57  88 CALM      30.04S
ROANOKE RAPIDS NOT AVBL
ROCKY MOUNT    FOG       61  60  97 CALM      30.05S VSB 1/4
WASHINGTON     CLEAR     63  62  95 CALM      30.06R
WHITEVILLE     CLEAR     65  64  94 CALM      30.04R FOG

$$

AMZ130-135-150-152-154-156-158-170-250-252-270-ANZ085-086-088-633-658-670-020600-
MARINE OBSERVATIONS

STATION/POSITION TIME  TEMP    WIND        PRES    WAVE   SWELL
                       AIR SEA DIR/SP/G            HT/PER HT/PER
                 (UTC) (F)     (DEG/KT/KT) (MB)    (FT/S) (FT/S)
CHESAPEAKE LIGHT 0500   69      40/ 10/ 11 1017.8
BUOY 44014       0500   69 71   10/ 12/ 14 1016.1    4/ 7   3/ 7
DUCK             0500      73   40/ 11/ 14 1016.4
2E DUCK          0500                        N/A     4/ 6   2/13
OREGON INLET     0500      74   30/  8/ 12 1016.8
BUOY 44095       0500      73                N/A     4/ 8   2/13
20E OREGON INLET NOT AVBL
HATTERAS CG      0500   70 75   40/  8/ 11 1017.2
DIAMOND BUOY     0500   70      10/ 14/ 16 1016.5    3/ 7   2/ 7
CAPE LOOKOUT     0500   71      30/  8/ 11 1016.8
BEAUFORT LAB     0500   69 76   40/  4/  5 1016.5
30 SE NEW RIVER  0500   75 79   80/  6/ 10 1016.1    2/ 7   2/ 7
5 SE WRIGHTSVILL 0500   71 76  300/  4/  6   N/A
BUOY 41002       0356   79 80   30/ 10/ 12 1015.5    3/ 5   2/ 6
BUOY 41004       0500   78 81   80/ 10/ 12 1016.3    2/ 7   2/ 7

$$


USA.gov is the U.S. government's official web portal to all federal, state and local government web resources and services.